sat.trackr.live / text

‹ back to catalog

STARLINK-32559

NORAD 61915 · 2024-207D

PAYLOAD ACTIVE UNKNOWN

§ Identity

Operator
Country
US
Launch date
2024-11-11
Launch site
AFETR
Launch vehicle
Mass (kg)
RCS (m²)

Purposes: comms

External: N2YO · Heavens-Above · Gunter

§ Orbital elements

Epoch: 2026-09-06T12:58:41.886048Z

Period
88.64 min
Inclination
42.9924°
Eccentricity
0.0003585
Mean motion
16.24573324 rev/d
Perigee alt
204.8 km
Apogee alt
209.5 km
Semi-major
6,585.3 km
B*
3.3313e-3
RAAN
313.7492°
Arg perigee
41.1438°
Mean anomaly
318.9719°
Rev number
10,268

§ Raw data

STARLINK-325591 61915U 24207D   26249.54076257  .09800687  90344-5  33313-2 0  99942 61915  42.9924 313.7492 0003585  41.1438 318.9719 16.24573324102687

JSON: /api/v1/satellites/61915 · /tle

For live sub-satellite position, see the globe view (requires WebGL).

§ Visibility from observer

Set your observer location to see the next 7 days of passes ≥ 10°. The values pass through the URL so the page stays shareable.

No JS? Fill the form by hand. The geolocation button needs JavaScript.